Weather observations for the past three days for
Torrance, Zamperini Field Airport
| Date | Time (pdt) | Wind (mph) | Vis. (mi.) | Weather | Sky Cond. | Temperature (ºF) | Relative Humidity | Wind Chill (°F) | Heat Index (°F) | Pressure | Precipitation (in) | ||||||
|---|---|---|---|---|---|---|---|---|---|---|---|---|---|---|---|---|---|
| Air | Dwpt | 6 hour | altimeter (in) | sea level (mb) | 1 hr | 3 hr | 6 hr | ||||||||||
| Max. | Min. | ||||||||||||||||
| 05 | 08:49 | SW 12 | 10.00 | Partly Cloudy | FEW019 SCT060 | 62.6 | 51.8 | 68% | 29.96 | 0.0 | |||||||
| 05 | 07:59 | W 12 | 10.00 | Partly Cloudy | FEW010 SCT019 SCT060 | 60.8 | 51.8 | 72% | 29.95 | 0.0 | |||||||
| 05 | 06:57 | W 3 | 10.00 | Mostly Cloudy | FEW010 SCT023 BKN075 | 57.2 | 51.8 | 82% | 29.94 | 0.0 | |||||||
| 04 | 19:47 | S 10 | 10.00 | Overcast | SCT022 OVC075 | 60.8 | 53.6 | 77% | 29.97 | 0.0 | |||||||
| 04 | 18:49 | SW 12 | 10.00 | Overcast | FEW022 OVC075 | 62.6 | 51.8 | 68% | 29.97 | 0.0 | |||||||
| 04 | 17:47 | SW 12 | 10.00 | Overcast | FEW022 OVC075 | 62.6 | 51.8 | 68% | 29.97 | 0.0 | |||||||
| 04 | 16:50 | SW 14 | 10.00 | Overcast | SCT043 OVC085 | 64.4 | 51.8 | 64% | 29.98 | 0.0 | |||||||
| 04 | 15:48 | SW 16 G 24 | 10.00 | Overcast | SCT041 OVC085 | 66.2 | 51.8 | 60% | 29.97 | 0.0 | |||||||
| 04 | 14:47 | SW 18 | 10.00 | Mostly Cloudy | SCT041 BKN160 | 66.2 | 51.8 | 60% | 29.99 | 0.0 | |||||||
| 04 | 13:47 | SW 15 | 10.00 | Mostly Cloudy | SCT032 BKN140 | 68 | 51.8 | 56% | 30 | 0.0 | |||||||
| 04 | 12:47 | SW 14 | 10.00 | Mostly Cloudy | SCT032 BKN140 | 69.8 | 50 | 50% | 30 | 0.0 | |||||||
| 04 | 11:47 | SW 14 G 22 | 10.00 | Overcast | SCT032 OVC140 | 68 | 50 | 53% | 30.01 | 0.0 | |||||||
| 04 | 10:50 | W 15 G 21 | 10.00 | Partly Cloudy | FEW025 SCT070 | 66.2 | 48.2 | 52% | 30.01 | 0.0 | |||||||
| 04 | 09:47 | W 10 | 10.00 | Partly Cloudy | FEW025 SCT070 | 64.4 | 50 | 60% | 30 | 0.0 | |||||||
| 04 | 08:47 | W 10 | 10.00 | Mostly Cloudy | FEW025 BKN070 | 62.6 | 51.8 | 68% | 29.99 | 0.0 | |||||||
| 04 | 07:47 | W 10 | 10.00 | Mostly Cloudy | FEW025 BKN070 | 60.8 | 51.8 | 72% | 29.98 | 0.0 | |||||||
| 04 | 06:47 | W 12 | 10.00 | Mostly Cloudy | FEW015 BKN060 | 57.2 | 50 | 77% | 29.97 | 0.0 | |||||||
| 03 | 19:47 | W 13 | 10.00 | Overcast | FEW020 OVC050 | 60.8 | 51.8 | 72% | 29.95 | 0.0 | |||||||
| 03 | 18:48 | W 15 | 10.00 | Overcast | FEW018 OVC050 | 60.8 | 51.8 | 72% | 29.94 | 0.0 | |||||||
| 03 | 17:51 | W 15 | 10.00 | Mostly Cloudy | SCT024 BKN050 | 62.6 | 51.8 | 68% | 29.92 | 0.0 | |||||||
| 03 | 15:47 | W 15 | 10.00 | Mostly Cloudy | SCT025 BKN050 | 66.2 | 50 | 56% | 29.94 | 0.0 | |||||||
| 03 | 14:47 | W 16 | 10.00 | Mostly Cloudy | BKN037 | 64.4 | 50 | 60% | 29.94 | 0.0 | |||||||
| 03 | 13:59 | W 18 | 10.00 | Mostly Cloudy | BKN037 | 66.2 | 48.2 | 52% | 29.94 | 0.0 | |||||||
| 03 | 12:47 | W 13 | 10.00 | Mostly Cloudy | FEW031 BKN037 | 64.4 | 48.2 | 56% | 29.95 | 0.0 | |||||||
| 03 | 11:56 | W 13 | 10.00 | Mostly Cloudy | FEW024 BKN031 | 66.2 | 48.2 | 52% | 29.97 | 0.0 | |||||||
| 03 | 10:47 | SW 9 | 10.00 | Overcast | OVC027 | 64.4 | 48.2 | 56% | 29.97 | 0.0 | |||||||
| 03 | 09:57 | S 6 | 10.00 | Overcast | SCT017 OVC038 | 64.4 | 50 | 60% | 29.96 | 0.0 | |||||||
| 03 | 08:56 | SW 6 | 10.00 | Overcast | SCT017 OVC025 | 62.6 | 51.8 | 68% | 29.95 | 0.0 | |||||||
| 03 | 07:54 | Calm | 10.00 | Overcast | SCT018 OVC025 | 60.8 | 53.6 | 77% | 29.94 | 0.0 | |||||||
| 03 | 06:52 | W 5 | 10.00 | Overcast | SCT015 OVC025 | 59 | 53.6 | 82% | 29.92 | 0.0 | |||||||
| 02 | 19:50 | SW 12 | 10.00 | Partly Cloudy | SCT010 | 59 | 55.4 | 88% | 29.87 | 0.0 | |||||||
| 02 | 18:47 | W 10 | 10.00 | Partly Cloudy | SCT013 | 62.6 | 55.4 | 77% | 29.85 | 0.0 | |||||||
| 02 | 17:50 | W 15 | 10.00 | A Few Clouds | FEW250 | 64.4 | 55.4 | 73% | 29.84 | 0.0 | |||||||
| 02 | 16:47 | W 15 | 10.00 | A Few Clouds | FEW250 | 64.4 | 55.4 | 73% | 29.85 | 0.0 | |||||||
| 02 | 15:55 | W 15 | 10.00 | Partly Cloudy | SCT020 SCT220 | 64.4 | 55.4 | 73% | 29.86 | 0.0 | |||||||
| 02 | 14:50 | W 21 | 10.00 | Mostly Cloudy and Breezy | SCT015 BKN220 | 66.2 | 55.4 | 68% | 29.91 | 0.0 | |||||||
| 02 | 13:47 | SW 15 G 22 | 10.00 | Mostly Cloudy with Haze | BKN015 | 68 | 57.2 | 69% | 29.93 | 0.0 | |||||||
| 02 | 12:48 | W 12 | 10.00 | Mostly Cloudy | BKN015 | 66.2 | 57.2 | 73% | 29.94 | 0.0 | |||||||
| 02 | 11:55 | W 9 | 6.00 | Overcast with Haze | OVC015 | 66.2 | 57.2 | 73% | 29.96 | 0.0 | |||||||
| 02 | 10:52 | W 3 | 4.00 | Overcast with Haze | OVC008 | 62.6 | 57.2 | 83% | 29.97 | 0.0 | |||||||
| 02 | 09:47 | Calm | 4.00 | Overcast with Haze | OVC008 | 62.6 | 55.4 | 77% | 29.98 | 0.0 | |||||||
| Date | Time (pdt) | Wind (mph) | Vis. (mi.) | Weather | Sky Cond. | Air | Dwpt | Max. | Min. | Relative Humidity | Wind Chill (°F) | Heat Index (°F) | altimeter (in) | sea level (mb) | 1 hr | 3 hr | 6 hr |
| 6 hour | |||||||||||||||||
| Temperature (ºF) | Pressure | Precipitation (in) | |||||||||||||||